Flag for Denmark Weather past 2 weeks in Aalborg, Denmark

Now
55 °F

Thunderstorms. Broken clouds.


Feels Like: 54 °F
Forecast: 49 / 60 °F
Wind: 7 mph from Northwest

Location: Aalborg Airport

Current Time: Sep 5, 2015 at 10:30:59 AM

Latest Report: Sep 5, 2015 at 9:57 AM


Visibility: N/A

Pressure: 29.45 "Hg

Humidity: 82%

Dew point: 50 °F

Location of AalborgLocation

Historic Weather in Aalborg — Graph

°F

Aalborg temperature yesterday

Maximum temperature yesterday: 64 °F (at 1:20 PM)
Minimum temperature yesterday: 50 °F (at 3:50 AM)
Average temperature yesterday: 57 °F

Past Weeks' High & Low Weather Summary

 TemperatureHumidityPressure
High75 °F (Aug 22, 11:50 AM)100% (Aug 22, 4:50 AM)30.33 "Hg (Aug 22, 4:50 AM)
Low50 °F (Sep 4, 3:50 AM)36% (Aug 22, 1:20 PM)29.45 "Hg (Sep 5, 8:50 AM)
Average62 °F81%29.88 "Hg
* Reported Aug 21 9:20 AM — Sep 5 9:20 AM, Aalborg, Weather by CustomWeather, © 2015

Note: Actual official high and low records may vary slightly from our data, if they occured in-between our weather recording intervals... More about our weather records

Advertising

Aalborg weather history for previous 24 hours

 ConditionsComfort  
Time TempWeatherWind HumidityBarometerVisibility
9:20 AM
Sat, Sep 5
55 °FPassing clouds.6 mph88%29.45 "HgN/A
9:04 AM55 °FScattered clouds.9 mph88%29.45 "HgN/A
8:50 AM55 °FRain showers. Scattered clouds.13 mph88%29.45 "Hg4 mi
8:20 AM55 °FSprinkles. Broken clouds.13 mph88%29.47 "HgN/A
7:50 AM54 °FSprinkles. Broken clouds.9 mph94%29.47 "HgN/A
7:20 AM54 °FRain showers. Passing clouds.14 mph94%29.50 "Hg3 mi
6:50 AM55 °FSprinkles. Passing clouds.10 mph94%29.50 "HgN/A
6:20 AM55 °FPassing clouds.12 mph94%29.50 "HgN/A
5:20 AM54 °FSprinkles. Passing clouds.5 mph94%29.53 "HgN/A
4:56 AM54 °FRain showers. Passing clouds.7 mph88%29.56 "Hg2 mi
4:20 AM54 °FSprinkles. Passing clouds.13 mph94%29.56 "HgN/A
3:50 AM52 °FPassing clouds.6 mph100%29.59 "HgN/A
3:20 AM52 °FPassing clouds.3 mph94%29.59 "HgN/A
2:50 AM50 °FPassing clouds.5 mph94%29.59 "HgN/A
2:20 AM50 °FPassing clouds.2 mph94%29.62 "HgN/A
1:50 AM50 °FPassing clouds.2 mph94%29.62 "HgN/A
1:20 AM52 °FPassing clouds.No wind88%29.65 "HgN/A
12:50 AM50 °FPassing clouds.6 mph94%29.65 "HgN/A
12:20 AM52 °FPassing clouds.1 mph94%29.65 "HgN/A
11:20 PM
Fri, Sep 4
54 °FPassing clouds.3 mph94%29.68 "HgN/A
10:50 PM52 °FPassing clouds.1 mph94%29.68 "HgN/A
10:20 PM54 °FPassing clouds.3 mph94%29.71 "HgN/A
9:50 PM55 °FPassing clouds.1 mph88%29.71 "HgN/A
9:20 PM55 °FPassing clouds.5 mph88%29.71 "HgN/A
8:50 PM57 °FScattered clouds.6 mph82%29.71 "HgN/A
8:20 PM57 °FScattered clouds.6 mph82%29.71 "HgN/A
7:20 PM61 °FPassing clouds.6 mph68%29.74 "HgN/A
6:50 PM61 °FPassing clouds.7 mph68%29.74 "HgN/A
6:20 PM61 °FScattered clouds.5 mph68%29.74 "HgN/A
5:50 PM61 °FScattered clouds.9 mph72%29.74 "HgN/A
5:20 PM63 °FScattered clouds.9 mph68%29.74 "HgN/A
4:50 PM63 °FScattered clouds.10 mph68%29.77 "HgN/A
4:20 PM63 °FScattered clouds.12 mph68%29.77 "HgN/A
3:50 PM64 °FScattered clouds.14 mph68%29.77 "HgN/A
3:20 PM63 °FScattered clouds.10 mph68%29.80 "HgN/A
2:50 PM63 °FPartly sunny.9 mph68%29.80 "HgN/A
2:20 PM61 °FScattered clouds.10 mph72%29.80 "HgN/A
1:50 PM63 °FPassing clouds.14 mph68%29.80 "HgN/A
1:20 PM64 °FPassing clouds.13 mph68%29.80 "HgN/A
12:50 PM63 °FPassing clouds.10 mph68%29.80 "HgN/A
12:20 PM63 °FPassing clouds.10 mph68%29.80 "HgN/A
11:50 AM63 °FPassing clouds.9 mph73%29.83 "HgN/A
11:20 AM61 °FScattered clouds.12 mph77%29.83 "HgN/A
10:50 AM59 °FScattered clouds.12 mph82%29.83 "HgN/A
10:20 AM59 °FScattered clouds.12 mph82%29.83 "HgN/A
Weather by CustomWeather, © 2015

See weather overviewHow to use our weather pages